QPF
0.00 0.00 0.00 0.00 0.00 0.00 0.00 0.00 0.00 0.00 0.00 0.00 0.00 0.00 0.00 0.00 0.00 0.00 0.00 0.00 0.00 0.00 0.00 0.00 0.00 0.00 0.00 0.00 0.00 0.00 0.01 0.02 0.02 0.03 0.12 0.10 0.10 0.07 0.03 0.11 0.10 0.05 0.00
0.00 0.00 0.00 0.00 0.00 0.00 0.00 0.00 0.00 0.00 0.00 0.00 0.00 0.00 0.00 0.00 0.00 0.00 0.00 0.00 0.00 0.00 0.00 0.00 0.00 0.00 0.00 0.00 0.00 0.00 0.00 0.00 0.00 0.01 0.04 0.06 0.05 0.11 0.13 0.10 0.10 0.06 0.04
0.00 0.00 0.00 0.00 0.00 0.00 0.00 0.00 0.00 0.00 0.00 0.00 0.00 0.00 0.00 0.00 0.00 0.00 0.00 0.00 0.00 0.00 0.00 0.00 0.00 0.00 0.00 0.00 0.00 0.00 0.00 0.00 0.00 0.00 0.03 0.05 0.07 0.04 0.11 0.08 0.04 0.05 0.01
0.00 0.00 0.00 0.00 0.00 0.00 0.00 0.00 0.00 0.00 0.00 0.00 0.00 0.00 0.00 0.00 0.00 0.00 0.00 0.00 0.00 0.00 0.00 0.00 0.00 0.00 0.00 0.00 0.00 0.00 0.00 0.00 0.00 0.00 0.00 0.03 0.05 0.05 0.02 0.06 0.03 0.01 0.00
0.00 0.00 0.00 0.00 0.00 0.00 0.00 0.00 0.00 0.00 0.00 0.00 0.00 0.00 0.00 0.00 0.00 0.00 0.00 0.00 0.00 0.00 0.00 0.00 0.00 0.00 0.00 0.00 0.00 0.00 0.00 0.00 0.00 0.00 0.00 0.00 0.02 0.02 0.02 0.02 0.01 0.01 0.00
0.00 0.00 0.00 0.00 0.00 0.00 0.00 0.00 0.00 0.00 0.00 0.00 0.00 0.00 0.00 0.00 0.00 0.00 0.00 0.00 0.00 0.00 0.00 0.00 0.00 0.00 0.00 0.00 0.00 0.00 0.00 0.00 0.00 0.00 0.00 0.00 0.00 0.00 0.01 0.01 0.00 0.00 0.00
0.00 0.00 0.00 0.00 0.00 0.00 0.00 0.00 0.00 0.00 0.00 0.00 0.00 0.00 0.00 0.00 0.00 0.00 0.00 0.00 0.00 0.00 0.00 0.00 0.00 0.00 0.00 0.00 0.00 0.00 0.00 0.00 0.00 0.00 0.00 0.00 0.00 0.00 0.01 0.00 0.00 0.00 0.01
0.00 0.00 0.00 0.00 0.00 0.00 0.00 0.00 0.00 0.00 0.00 0.00 0.00 0.00 0.00 0.00 0.00 0.00 0.00 0.00 0.00 0.00 0.00 0.00 0.00 0.00 0.00 0.00 0.00 0.00 0.00 0.00 0.00 0.00 0.00 0.00 0.00 0.00 0.01 0.00 0.00 0.00 0.00
0.00 0.00 0.00 0.00 0.00 0.00 0.00 0.00 0.00 0.00 0.00 0.00 0.00 0.00 0.00 0.00 0.00 0.00 0.00 0.00 0.00 0.00 0.00 0.00 0.00 0.00 0.00 0.00 0.00 0.00 0.00 0.00 0.00 0.00 0.00 0.00 0.00 0.00 0.00 0.00 0.00 0.00 0.00
0.00 0.00 0.00 0.00 0.00 0.00 0.00 0.00 0.00 0.00 0.00 0.00 0.00 0.00 0.00 0.00 0.00 0.00 0.00 0.00 0.00 0.00 0.00 0.00 0.00 0.00 0.00 0.00 0.00 0.00 0.00 0.00 0.00 0.00 0.00 0.00 0.00 0.00 0.00 0.00 0.00 0.00 0.01
0.00 0.00 0.00 0.00 0.00 0.00 0.00 0.00 0.00 0.00 0.00 0.00 0.00 0.00 0.00 0.00 0.00 0.00 0.00 0.00 0.00 0.00 0.00 0.00 0.00 0.00 0.00 0.00 0.00 0.00 0.00 0.00 0.00 0.00 0.00 0.00 0.00 0.00 0.00 0.00 0.00 0.00 0.01
0.00 0.00 0.00 0.00 0.00 0.00 0.00 0.00 0.00 0.00 0.00 0.00 0.00 0.00 0.00 0.00 0.00 0.00 0.00 0.00 0.00 0.00 0.00 0.00 0.00 0.00 0.00 0.00 0.00 0.00 0.00 0.00 0.00 0.00 0.00 0.00 0.00 0.00 0.00 0.00 0.00 0.00 0.02
0.00 0.00 0.00 0.00 0.00 0.00 0.00 0.00 0.00 0.00 0.00 0.00 0.00 0.00 0.00 0.00 0.00 0.00 0.00 0.00 0.00 0.00 0.00 0.00 0.00 0.00 0.00 0.00 0.00 0.00 0.00 0.00 0.00 0.00 0.00 0.00 0.00 0.00 0.00 0.00 0.00 0.01 0.02
0.00 0.00 0.00 0.00 0.00 0.00 0.00 0.00 0.00 0.00 0.00 0.00 0.00 0.00 0.00 0.00 0.00 0.00 0.00 0.00 0.00 0.00 0.00 0.00 0.00 0.00 0.00 0.00 0.00 0.00 0.00 0.00 0.00 0.00 0.00 0.00 0.00 0.00 0.00 0.00 0.00 0.00 0.01
0.00 0.00 0.00 0.00 0.00 0.00 0.00 0.00 0.00 0.00 0.00 0.00 0.00 0.00 0.00 0.00 0.00 0.00 0.00 0.00 0.00 0.00 0.00 0.00 0.00 0.00 0.00 0.00 0.00 0.00 0.00 0.00 0.00 0.00 0.00 0.00 0.00 0.00 0.00 0.00 0.00 0.01 0.01
0.00 0.00 0.00 0.00 0.00 0.00 0.00 0.00 0.00 0.00 0.00 0.00 0.00 0.00 0.00 0.00 0.00 0.00 0.00 0.00 0.00 0.00 0.00 0.00 0.00 0.00 0.00 0.00 0.00 0.00 0.00 0.00 0.00 0.00 0.00 0.00 0.00 0.00 0.00 0.00 0.00 0.01 0.01
0.00 0.00 0.00 0.00 0.00 0.00 0.00 0.00 0.00 0.00 0.00 0.00 0.00 0.00 0.00 0.00 0.00 0.00 0.00 0.00 0.00 0.00 0.00 0.00 0.00 0.00 0.00 0.00 0.00 0.00 0.00 0.00 0.00 0.00 0.00 0.00 0.00 0.00 0.00 0.00 0.00 0.01 0.02
0.00 0.00 0.00 0.00 0.00 0.00 0.00 0.00 0.00 0.00 0.00 0.00 0.00 0.00 0.00 0.00 0.00 0.00 0.00 0.00 0.00 0.00 0.00 0.00 0.00 0.00 0.00 0.00 0.00 0.00 0.00 0.00 0.00 0.00 0.00 0.00 0.00 0.00 0.00 0.00 0.00 0.00 0.03
0.00 0.00 0.00 0.00 0.00 0.00 0.00 0.00 0.00 0.00 0.00 0.00 0.00 0.00 0.00 0.00 0.00 0.00 0.00 0.00 0.00 0.00 0.00 0.00 0.00 0.00 0.00 0.00 0.00 0.00 0.00 0.00 0.00 0.00 0.00 0.00 0.00 0.00 0.00 0.00 0.00 0.00 0.01
0.00 0.00 0.00 0.00 0.00 0.00 0.00 0.00 0.00 0.00 0.00 0.00 0.00 0.00 0.00 0.00 0.00 0.00 0.00 0.00 0.00 0.00 0.00 0.00 0.00 0.00 0.00 0.00 0.00 0.00 0.00 0.00 0.00 0.00 0.00 0.00 0.00 0.00 0.00 0.00 0.00 0.00 0.00
0.00 0.00 0.00 0.00 0.00 0.00 0.00 0.00 0.00 0.00 0.00 0.00 0.00 0.00 0.00 0.00 0.00 0.00 0.00 0.00 0.00 0.00 0.00 0.00 0.00 0.00 0.00 0.00 0.00 0.00 0.00 0.00 0.00 0.00 0.00 0.00 0.00 0.00 0.00 0.00 0.00 0.00 0.00
0.00 0.00 0.00 0.00 0.00 0.00 0.00 0.00 0.00 0.00 0.00 0.00 0.00 0.00 0.00 0.00 0.00 0.00 0.00 0.00 0.00 0.00 0.00 0.00 0.00 0.00 0.00 0.00 0.00 0.00 0.00 0.00 0.00 0.00 0.00 0.00 0.00 0.00 0.00 0.00 0.00 0.00 0.00
0.00 0.00 0.00 0.00 0.00 0.00 0.00 0.00 0.00 0.00 0.00 0.00 0.00 0.00 0.00 0.00 0.00 0.00 0.00 0.00 0.00 0.01 0.01 0.01 0.01 0.00 0.00 0.00 0.00 0.00 0.00 0.00 0.00 0.00 0.00 0.01 0.01 0.00 0.00 0.00 0.00 0.00 0.00
0.00 0.00 0.00 0.00 0.00 0.00 0.00 0.00 0.00 0.00 0.00 0.00 0.00 0.00 0.00 0.00 0.00 0.00 0.00 0.00 0.01 0.01 0.01 0.01 0.01 0.00 0.00 0.00 0.00 0.00 0.00 0.00 0.00 0.00 0.01 0.01 0.00 0.00 0.00 0.00 0.00 0.00 0.00
0.00 0.00 0.00 0.00 0.00 0.00 0.00 0.00 0.00 0.00 0.00 0.00 0.00 0.00 0.00 0.00 0.00 0.00 0.00 0.00 0.00 0.00 0.00 0.01 0.01 0.01 0.00 0.00 0.00 0.00 0.00 0.00 0.00 0.00 0.00 0.00 0.00 0.00 0.00 0.00 0.01 0.01 0.00
0.00 0.00 0.00 0.00 0.00 0.00 0.00 0.00 0.00 0.00 0.00 0.00 0.00 0.00 0.00 0.00 0.00 0.00 0.00 0.00 0.00 0.00 0.00 0.00 0.00 0.01 0.01 0.00 0.00 0.00 0.00 0.00 0.00 0.00 0.00 0.00 0.00 0.00 0.00 0.00 0.01 0.00 0.00
MSLP
1017.10 1017.23 1017.46 1017.84 1018.21 1018.57 1018.95 1019.23 1019.44 1019.57 1019.68 1019.77 1019.79 1019.75 1019.64 1019.46 1019.30 1019.18 1019.08 1018.87 1018.79 1018.64 1018.44 1018.32 1017.91 1017.35 1016.77 1016.32 1015.87 1015.50 1015.04 1014.48 1013.98 1013.70 1013.46 1013.19 1013.20 1013.22 1013.28 1013.34 1013.41 1014.12 1014.35
1017.00 1017.42 1017.64 1017.91 1018.36 1018.79 1019.19 1019.47 1019.67 1019.84 1019.83 1019.91 1019.93 1019.90 1019.78 1019.62 1019.44 1019.27 1019.05 1019.03 1019.07 1019.03 1018.92 1018.79 1018.55 1018.02 1017.29 1016.66 1016.22 1015.83 1015.47 1014.61 1014.08 1013.78 1013.39 1013.47 1013.09 1013.53 1013.35 1013.52 1013.73 1013.96 1014.70
1016.56 1017.31 1017.62 1017.97 1018.41 1018.86 1019.22 1019.51 1019.70 1019.84 1019.94 1019.92 1019.96 1019.98 1019.92 1019.76 1019.57 1019.30 1019.22 1019.19 1019.06 1019.02 1018.93 1018.85 1018.68 1018.40 1017.85 1017.12 1016.59 1016.28 1015.79 1015.02 1014.50 1013.77 1013.90 1013.54 1013.65 1013.39 1013.66 1013.62 1014.00 1014.06 1014.41
1016.34 1016.93 1017.47 1017.94 1018.38 1018.78 1019.12 1019.42 1019.60 1019.72 1019.80 1019.85 1019.93 1020.01 1019.97 1019.78 1019.54 1019.40 1019.30 1019.24 1019.18 1019.10 1018.93 1018.62 1018.32 1018.17 1017.86 1017.31 1016.65 1016.15 1015.92 1015.48 1014.82 1014.14 1014.14 1013.91 1014.12 1013.65 1013.62 1013.88 1014.06 1014.02 1014.44
1015.90 1016.78 1017.34 1017.89 1018.28 1018.77 1019.09 1019.36 1019.59 1019.75 1019.91 1020.03 1020.09 1020.13 1020.05 1019.84 1019.70 1019.64 1019.55 1019.43 1019.35 1019.11 1018.79 1018.42 1017.93 1017.56 1017.23 1016.96 1016.68 1016.13 1015.79 1015.40 1015.03 1014.71 1014.49 1014.49 1014.36 1014.31 1014.00 1013.77 1013.72 1013.78 1013.76
1015.78 1016.63 1017.09 1017.91 1018.32 1018.67 1019.01 1019.33 1019.61 1019.83 1020.01 1020.15 1020.22 1020.25 1020.19 1019.98 1019.88 1019.81 1019.75 1019.58 1019.35 1019.15 1018.74 1018.08 1017.56 1017.09 1016.58 1016.27 1016.01 1015.63 1015.37 1015.21 1015.13 1015.32 1014.98 1015.27 1014.41 1014.39 1014.14 1013.86 1013.69 1013.80 1014.02
1016.26 1016.73 1017.13 1017.71 1018.30 1018.70 1019.15 1019.54 1019.80 1019.95 1020.10 1020.24 1020.29 1020.31 1020.27 1019.97 1019.82 1019.81 1019.73 1019.58 1019.24 1019.00 1018.57 1017.91 1017.24 1016.61 1016.11 1015.79 1015.47 1015.25 1014.88 1014.63 1014.67 1014.94 1014.86 1014.91 1014.91 1014.04 1013.87 1013.63 1013.33 1013.42 1013.40
1016.90 1017.24 1017.47 1018.15 1018.73 1019.00 1019.48 1019.97 1020.12 1020.11 1020.27 1020.39 1020.39 1020.32 1020.28 1020.14 1020.01 1019.86 1019.57 1019.39 1019.02 1018.78 1018.37 1017.66 1017.05 1016.35 1016.19 1015.72 1015.23 1015.00 1014.85 1014.72 1014.67 1014.78 1014.63 1014.92 1015.09 1014.33 1013.56 1013.00 1012.96 1013.01 1012.96
1017.43 1018.01 1018.15 1018.69 1019.21 1019.74 1020.31 1020.57 1020.56 1020.62 1020.56 1020.40 1020.22 1020.16 1020.15 1019.94 1019.71 1019.48 1019.25 1019.03 1018.63 1018.53 1018.20 1017.88 1017.39 1017.00 1016.62 1016.12 1015.65 1015.24 1014.93 1014.65 1014.36 1014.54 1014.72 1014.85 1014.57 1014.01 1013.41 1013.09 1012.88 1012.90 1012.66
1018.35 1018.55 1018.79 1019.33 1019.80 1020.34 1020.53 1020.75 1020.82 1020.82 1020.76 1020.49 1020.13 1019.87 1019.69 1019.44 1019.28 1018.91 1018.72 1018.59 1018.34 1018.20 1018.04 1017.80 1017.76 1017.42 1016.97 1016.67 1016.41 1016.04 1015.71 1015.44 1015.08 1014.56 1014.26 1013.87 1013.72 1013.33 1012.98 1012.96 1012.34 1012.47 1012.43
1019.03 1019.28 1019.58 1019.94 1020.28 1020.56 1020.77 1020.81 1020.76 1020.70 1020.47 1020.23 1019.92 1019.50 1019.18 1019.00 1018.66 1018.43 1018.29 1018.31 1018.17 1018.03 1017.93 1017.85 1017.50 1017.31 1017.07 1016.91 1016.59 1016.26 1015.92 1015.54 1015.22 1014.87 1014.37 1013.92 1013.33 1012.90 1012.59 1012.16 1011.83 1011.64 1011.76
1019.84 1020.15 1020.49 1020.75 1020.88 1020.88 1020.92 1020.86 1020.62 1020.28 1020.11 1019.80 1019.48 1019.02 1018.68 1018.50 1018.31 1018.10 1018.10 1018.06 1017.91 1017.84 1017.61 1017.36 1017.17 1017.10 1016.82 1016.63 1016.50 1016.22 1015.72 1015.29 1015.09 1014.77 1014.20 1013.59 1013.38 1012.81 1012.21 1011.75 1011.30 1011.03 1010.62
1020.23 1020.79 1020.95 1020.96 1021.19 1021.09 1021.09 1020.80 1020.53 1020.25 1019.87 1019.55 1019.26 1018.89 1018.54 1018.16 1017.84 1017.72 1017.64 1017.50 1017.48 1017.43 1017.20 1016.99 1016.94 1016.88 1016.66 1016.47 1016.22 1015.89 1015.53 1015.32 1015.01 1014.57 1014.10 1013.35 1012.82 1012.34 1011.88 1011.41 1010.73 1010.03 1009.81
1020.87 1021.24 1021.30 1021.41 1021.33 1021.11 1020.84 1020.58 1020.23 1020.01 1019.67 1019.31 1018.98 1018.64 1018.28 1017.95 1017.69 1017.50 1017.40 1017.33 1017.30 1017.19 1016.98 1016.82 1016.81 1016.70 1016.47 1016.22 1015.84 1015.37 1014.87 1014.52 1014.22 1013.89 1013.35 1012.80 1012.37 1012.15 1011.98 1011.26 1010.73 1010.09 1010.15
1021.25 1021.36 1021.46 1021.27 1021.17 1020.84 1020.39 1020.24 1019.95 1019.57 1019.33 1019.05 1018.78 1018.49 1018.10 1017.58 1017.30 1017.14 1017.04 1016.88 1016.68 1016.49 1016.46 1016.28 1016.10 1015.95 1015.72 1015.57 1015.34 1014.91 1014.38 1013.66 1013.33 1013.04 1012.80 1012.49 1012.22 1012.10 1011.74 1011.24 1010.96 1010.71 1010.48
1021.10 1021.45 1021.48 1021.31 1021.05 1020.80 1020.41 1019.94 1019.63 1019.29 1018.97 1018.68 1018.27 1017.86 1017.39 1017.08 1016.77 1016.60 1016.42 1016.19 1015.99 1015.89 1015.88 1015.64 1015.34 1015.22 1015.04 1014.91 1014.62 1014.31 1013.96 1013.31 1012.76 1012.42 1012.16 1011.92 1011.69 1011.57 1011.43 1011.15 1010.97 1010.83 1010.58
1021.88 1021.73 1021.70 1021.66 1021.46 1021.04 1020.51 1020.05 1019.46 1018.73 1018.46 1018.04 1017.63 1017.25 1016.90 1016.57 1016.29 1015.99 1015.60 1015.30 1015.14 1015.26 1015.07 1014.76 1014.52 1014.37 1014.16 1014.08 1013.88 1013.52 1013.13 1012.80 1012.41 1012.01 1011.79 1011.45 1011.25 1011.10 1011.07 1011.03 1010.82 1010.63 1010.37
1021.96 1021.98 1022.13 1021.95 1021.63 1021.19 1020.71 1020.17 1019.57 1018.88 1018.11 1017.49 1017.21 1016.96 1016.63 1016.25 1015.90 1015.51 1015.04 1014.74 1014.56 1014.23 1014.11 1013.84 1013.64 1013.46 1013.22 1013.04 1012.88 1012.64 1012.39 1012.20 1012.00 1011.74 1011.49 1011.28 1011.04 1010.86 1010.75 1010.69 1010.59 1010.40 1010.32
1022.33 1022.45 1022.44 1022.20 1021.87 1021.43 1020.84 1020.24 1019.62 1018.98 1018.38 1017.70 1017.11 1016.78 1016.53 1016.16 1015.68 1015.11 1014.58 1014.18 1013.84 1013.48 1013.18 1012.92 1012.71 1012.51 1012.33 1012.18 1012.02 1011.83 1011.69 1011.65 1011.57 1011.39 1011.18 1011.03 1010.87 1010.78 1010.65 1010.59 1010.46 1010.31 1010.03
1022.99 1022.83 1022.61 1022.26 1021.82 1021.45 1020.96 1020.41 1019.84 1019.29 1018.59 1017.90 1017.31 1016.76 1016.16 1015.66 1015.17 1014.63 1014.12 1013.52 1013.12 1012.77 1012.45 1012.04 1011.77 1011.61 1011.50 1011.40 1011.25 1011.08 1011.03 1011.05 1011.05 1010.98 1010.87 1010.75 1010.58 1010.54 1010.53 1010.57 1010.53 1010.23 1009.85
1023.16 1022.90 1022.56 1022.17 1021.82 1021.39 1021.01 1020.49 1019.92 1019.18 1018.44 1017.73 1017.08 1016.52 1016.14 1015.59 1014.84 1014.25 1013.67 1013.22 1012.63 1012.06 1011.78 1011.52 1011.19 1010.92 1010.73 1010.60 1010.50 1010.47 1010.41 1010.45 1010.52 1010.48 1010.44 1010.33 1010.24 1010.18 1010.08 1010.07 1010.07 1009.63 1009.38
1023.15 1022.80 1022.42 1022.13 1021.67 1021.23 1020.79 1020.26 1019.61 1018.93 1018.21 1017.48 1016.74 1016.14 1015.64 1015.04 1014.46 1013.85 1013.30 1012.80 1012.25 1011.73 1011.22 1010.75 1010.58 1010.43 1010.24 1010.09 1010.02 1010.03 1010.13 1010.01 1009.97 1010.10 1010.07 1009.94 1009.89 1009.81 1009.69 1009.80 1009.71 1009.36 1009.05
1023.09 1022.78 1022.47 1022.15 1021.55 1021.01 1020.52 1020.01 1019.34 1018.68 1017.96 1017.26 1016.52 1015.80 1015.25 1014.71 1014.18 1013.56 1012.92 1012.26 1011.75 1011.14 1010.64 1010.22 1009.92 1009.78 1009.66 1009.59 1009.55 1009.62 1009.69 1009.68 1009.46 1009.50 1009.53 1009.52 1009.52 1009.47 1009.51 1009.52 1009.36 1008.91 1008.65
1022.94 1022.76 1022.58 1022.16 1021.59 1020.97 1020.42 1019.73 1019.07 1018.41 1017.80 1017.02 1016.29 1015.61 1014.98 1014.39 1013.83 1013.24 1012.58 1011.96 1011.41 1010.82 1010.26 1009.78 1009.34 1009.04 1009.00 1009.03 1009.02 1009.08 1009.12 1009.13 1009.09 1009.06 1009.11 1009.11 1009.18 1009.40 1009.37 1009.13 1008.86 1008.40 1008.17
1022.96 1022.72 1022.54 1022.20 1021.61 1021.02 1020.37 1019.65 1018.93 1018.24 1017.56 1016.84 1016.03 1015.35 1014.72 1014.12 1013.50 1012.88 1012.22 1011.61 1011.00 1010.41 1009.76 1009.34 1008.95 1008.52 1008.22 1008.21 1008.30 1008.40 1008.51 1008.65 1008.73 1008.81 1008.81 1008.89 1009.04 1009.04 1008.94 1008.49 1008.13 1007.79 1007.67
1022.98 1022.78 1022.56 1022.15 1021.67 1021.07 1020.42 1019.67 1018.90 1018.16 1017.42 1016.66 1015.89 1015.18 1014.51 1013.82 1013.16 1012.47 1011.84 1011.17 1010.46 1009.75 1009.07 1008.58 1008.28 1008.17 1007.77 1007.57 1007.61 1007.74 1007.88 1008.09 1008.32 1008.55 1008.44 1008.71 1008.65 1008.55 1008.24 1007.66 1007.47 1007.42 1007.38
Thickness
5666 5662 5658 5653 5649 5644 5639 5635 5631 5628 5625 5622 5619 5617 5616 5615 5614 5611 5609 5608 5606 5605 5606 5606 5608 5613 5618 5622 5623 5625 5630 5637 5641 5645 5647 5653 5655 5654 5659 5659 5661 5657 5657
5657 5651 5648 5644 5638 5633 5627 5623 5620 5616 5614 5611 5608 5606 5605 5603 5602 5601 5599 5596 5593 5591 5590 5590 5592 5596 5601 5607 5610 5613 5616 5625 5630 5633 5637 5641 5647 5647 5653 5653 5652 5652 5647
5651 5643 5638 5633 5627 5622 5618 5613 5610 5606 5603 5600 5596 5594 5591 5590 5589 5588 5586 5583 5582 5581 5578 5578 5578 5579 5584 5589 5593 5597 5601 5609 5614 5624 5625 5631 5634 5640 5640 5645 5644 5645 5642
5644 5638 5632 5624 5619 5614 5609 5604 5600 5596 5592 5588 5584 5581 5578 5577 5576 5574 5572 5570 5568 5567 5567 5568 5569 5569 5571 5576 5581 5585 5587 5594 5601 5607 5612 5617 5618 5627 5632 5632 5635 5638 5636
5633 5626 5621 5615 5609 5604 5598 5593 5588 5584 5579 5574 5570 5566 5563 5562 5561 5558 5556 5554 5553 5553 5554 5557 5560 5562 5564 5566 5569 5573 5577 5581 5587 5590 5593 5600 5605 5609 5618 5623 5628 5631 5636
5624 5617 5614 5605 5598 5592 5586 5581 5576 5570 5564 5559 5554 5551 5548 5548 5545 5543 5540 5539 5539 5539 5542 5546 5549 5552 5556 5559 5561 5566 5568 5570 5571 5572 5580 5579 5592 5598 5606 5612 5617 5621 5623
5610 5606 5601 5595 5587 5580 5574 5567 5561 5557 5551 5544 5539 5536 5534 5533 5532 5530 5527 5525 5526 5526 5528 5531 5537 5542 5547 5550 5552 5555 5558 5561 5562 5561 5565 5568 5573 5589 5598 5604 5612 5614 5619
5593 5587 5587 5578 5570 5566 5558 5550 5546 5543 5537 5531 5526 5522 5520 5518 5517 5516 5514 5512 5514 5512 5513 5517 5523 5530 5532 5537 5542 5545 5547 5548 5549 5551 5555 5553 5557 5570 5587 5600 5608 5612 5615
5582 5572 5569 5561 5554 5546 5538 5532 5528 5524 5521 5518 5515 5511 5507 5504 5504 5503 5501 5500 5501 5497 5497 5500 5505 5508 5512 5517 5525 5532 5536 5538 5541 5543 5542 5540 5549 5560 5572 5585 5593 5601 5610
5562 5557 5551 5543 5537 5529 5524 5518 5512 5508 5505 5503 5502 5500 5497 5495 5492 5492 5489 5487 5486 5484 5481 5484 5486 5490 5495 5498 5502 5509 5515 5518 5524 5530 5535 5540 5543 5552 5563 5571 5584 5593 5599
5542 5538 5532 5526 5519 5513 5509 5504 5499 5495 5493 5491 5489 5489 5487 5484 5481 5480 5478 5474 5472 5472 5469 5468 5474 5477 5479 5482 5487 5493 5501 5506 5511 5517 5525 5530 5538 5545 5554 5566 5576 5585 5591
5526 5520 5513 5507 5503 5499 5493 5490 5487 5486 5485 5482 5479 5477 5475 5472 5471 5469 5465 5462 5461 5459 5460 5462 5463 5464 5467 5471 5474 5480 5487 5495 5501 5508 5517 5524 5527 5536 5547 5555 5565 5575 5586
5513 5504 5497 5493 5487 5483 5479 5478 5473 5471 5472 5469 5465 5462 5461 5460 5459 5457 5456 5454 5452 5450 5450 5451 5452 5453 5456 5458 5463 5469 5476 5481 5489 5497 5505 5514 5524 5531 5540 5549 5561 5572 5581
5495 5489 5483 5479 5474 5470 5467 5464 5463 5460 5456 5454 5451 5448 5446 5445 5443 5443 5442 5441 5440 5439 5440 5440 5440 5441 5444 5448 5453 5459 5467 5474 5482 5489 5500 5510 5518 5525 5530 5541 5553 5564 5567
5482 5477 5470 5467 5462 5461 5458 5452 5449 5445 5440 5437 5434 5430 5428 5429 5428 5428 5428 5429 5431 5431 5431 5432 5432 5433 5436 5440 5444 5449 5457 5468 5475 5483 5490 5498 5505 5513 5521 5529 5537 5545 5553
5472 5464 5459 5456 5452 5447 5444 5441 5435 5431 5427 5423 5420 5419 5420 5417 5417 5414 5414 5416 5420 5422 5424 5425 5427 5428 5429 5432 5436 5441 5447 5456 5466 5474 5483 5490 5497 5504 5511 5520 5528 5536 5546
5454 5450 5444 5438 5434 5430 5429 5427 5426 5424 5420 5418 5414 5411 5409 5408 5404 5404 5405 5408 5412 5413 5417 5421 5423 5423 5425 5426 5429 5434 5441 5447 5455 5463 5472 5481 5489 5497 5502 5509 5517 5528 5539
5443 5437 5429 5424 5422 5419 5418 5417 5417 5418 5418 5417 5411 5406 5403 5401 5398 5397 5398 5401 5406 5410 5413 5417 5419 5420 5423 5425 5426 5431 5436 5441 5447 5454 5462 5470 5479 5488 5496 5502 5509 5520 5527
5430 5424 5418 5413 5411 5410 5410 5411 5411 5411 5410 5409 5406 5401 5397 5395 5394 5395 5396 5399 5402 5406 5410 5414 5417 5419 5421 5423 5425 5429 5432 5436 5441 5447 5454 5461 5469 5476 5485 5492 5501 5503 5514
5416 5412 5408 5406 5406 5404 5403 5402 5402 5401 5401 5399 5397 5396 5396 5395 5394 5394 5396 5399 5402 5403 5406 5411 5414 5417 5419 5422 5424 5428 5431 5434 5437 5442 5448 5454 5461 5468 5475 5480 5488 5499 5510
5408 5405 5401 5401 5400 5398 5397 5397 5396 5398 5398 5397 5396 5395 5393 5393 5394 5395 5396 5396 5398 5401 5402 5405 5410 5414 5418 5421 5424 5427 5430 5432 5435 5439 5444 5450 5456 5462 5469 5475 5483 5495 5505
5403 5400 5398 5396 5395 5395 5394 5395 5396 5396 5395 5395 5395 5396 5395 5394 5394 5394 5394 5393 5393 5395 5399 5403 5405 5409 5413 5417 5421 5423 5426 5430 5433 5436 5441 5445 5450 5456 5463 5469 5476 5487 5499
5398 5395 5393 5390 5391 5392 5393 5393 5394 5394 5394 5393 5394 5395 5395 5394 5393 5392 5393 5393 5393 5395 5397 5400 5402 5404 5409 5413 5416 5419 5422 5426 5431 5435 5439 5442 5445 5449 5453 5459 5469 5481 5492
5396 5392 5388 5386 5387 5388 5389 5391 5393 5393 5393 5392 5393 5394 5394 5394 5393 5391 5392 5392 5391 5391 5391 5394 5398 5401 5405 5409 5413 5416 5420 5423 5427 5430 5433 5435 5437 5439 5444 5452 5463 5476 5489
5392 5389 5385 5383 5383 5384 5385 5388 5391 5392 5393 5393 5394 5394 5394 5393 5392 5391 5391 5391 5390 5389 5387 5387 5390 5396 5402 5407 5411 5415 5419 5422 5425 5426 5428 5431 5432 5436 5442 5454 5465 5477 5488
5387 5384 5380 5379 5378 5379 5381 5383 5387 5390 5391 5392 5394 5394 5394 5394 5393 5393 5391 5390 5390 5388 5386 5384 5385 5389 5396 5404 5410 5415 5420 5422 5423 5425 5429 5431 5435 5440 5448 5460 5471 5479 5488